This is the latest recevied weather packets stored in our database for station/object AB4KY. If no packets are shown the sender has not sent any weather packets the latest 10 day(s).
| Time | Temp. | Humidity | Pressure | Rain* | Wind** | Luminosity | Snow |
|---|---|---|---|---|---|---|---|
| 1777646644 | 11.67° C | 80% | 1011.8 hPa | 0 mm | - | 109 W/m² | - |
| 1777646340 | 11.67° C | 79% | 1011.6 hPa | 0 mm | - | 113 W/m² | - |
| 1777646036 | 11.67° C | 81% | 1011.7 hPa | 0 mm | - | 121 W/m² | - |
| 1777645733 | 11.11° C | 81% | 1011.6 hPa | 0 mm | - | 143 W/m² | - |
| 1777645430 | 10.56° C | 81% | 1011.7 hPa | 0 mm | - | 89 W/m² | - |
| 1777645125 | 11.11° C | 82% | 1011.5 hPa | 0 mm | - | 44 W/m² | - |
| 1777644822 | 11.11° C | 81% | 1011.1 hPa | 0 mm | - | 60 W/m² | - |
| 1777644520 | 11.11° C | 80% | 1011.4 hPa | 0 mm | - | 62 W/m² | - |
| 1777644216 | 11.11° C | 80% | 1011.4 hPa | 0 mm | - | 76 W/m² | - |
| 1777643912 | 10.56° C | 79% | 1011.3 hPa | 0 mm | - | 54 W/m² | - |
| 1777643610 | 10.56° C | 80% | 1011.6 hPa | 0 mm | - | 57 W/m² | - |
| 1777643307 | 10.56° C | 78% | 1011.5 hPa | 0 mm | - | 64 W/m² | - |
| 1777643004 | 10.56° C | 78% | 1011.5 hPa | 0 mm | - | 55 W/m² | - |
| 1777642700 | 11.11° C | 79% | 1011.4 hPa | 0 mm | - | 69 W/m² | - |
| 1777642398 | 10.56° C | 78% | 1011.5 hPa | 0 mm | - | 87 W/m² | - |
| 1777642094 | 10.56° C | 79% | 1011.5 hPa | 0 mm | - | 102 W/m² | - |
| 1777641789 | 10° C | 77% | 1011.5 hPa | 0 mm | - | 105 W/m² | - |
| 1777641484 | 10.56° C | 79% | 1011.5 hPa | 0 mm | - | 64 W/m² | - |
| 1777641180 | 10° C | 79% | 1011.6 hPa | 0 mm | - | 71 W/m² | - |
| 1777640876 | 10° C | 78% | 1011.5 hPa | 0 mm | - | 78 W/m² | - |
| 1777640573 | 10° C | 80% | 1011.4 hPa | 0 mm | - | 70 W/m² | - |
| 1777640269 | 9.44° C | 79% | 1011.4 hPa | 0 mm | - | 79 W/m² | - |
| 1777639966 | 9.44° C | 80% | 1011.3 hPa | 0 mm | - | 42 W/m² | - |
| 1777639663 | 9.44° C | 80% | 1011.4 hPa | 0 mm | - | 65 W/m² | - |
| 1777639361 | 8.89° C | 83% | 1011.3 hPa | 0 mm | - | 73 W/m² | - |
* Rain latest hour (hover to see other rain measurements)
** Current wind speed in m/s (hover to see current wind gust speed)